FW5282 Weather Reports


time (UTC)temp
C
wind
direction
speed
KPH
gust
KPH
rain 1hr
cm
rain 24hr
cm
rain mn
cm
humidity
%
barometer
mb
20260509063029 12 63 0.0 1.6 0.00 0.00 0.00 88 1013.2
20260509062530 11 67 1.6 1.6 0.00 0.00 0.00 89 1013.1
20260509062027 11 46 0.0 1.6 0.00 0.00 0.00 90 1013.1
20260509061527 11 59 0.0 1.6 0.00 0.00 0.00 90 1013.1
20260509061052 11 45 0.0 1.6 0.00 0.00 0.00 90 1013.1
20260509060537 11 39 0.0 1.6 0.00 0.00 0.00 90 1013.1
20260509060041 10 15 0.0 1.6 0.00 0.00 0.00 90 1013.1
20260509055542 10 45 0.0 1.6 0.00 0.00 0.00 90 1013.0
20260509055045 10 51 0.0 1.6 0.00 0.00 0.00 90 1013.0
20260509054531 10 21 0.0 1.6 0.00 0.00 0.00 91 1012.9
20260509054055 10 5 0.0 1.6 0.00 0.00 0.00 91 1012.9
20260509053541 10 5 0.0 1.6 0.00 0.00 0.00 92 1012.9
20260509053034 9 360 0.0 1.6 0.00 0.00 0.00 92 1012.9
20260509052539 9 355 0.0 0.0 0.00 0.00 0.00 93 1012.8
20260509052038 9 355 0.0 0.0 0.00 0.00 0.00 93 1012.8
20260509051528 8 355 0.0 0.0 0.00 0.00 0.00 93 1012.7
20260509051032 8 355 0.0 0.0 0.00 0.00 0.00 93 1012.7
20260509050544 8 355 0.0 1.6 0.00 0.00 0.00 93 1012.6
20260509050100 8 355 0.0 1.6 0.00 0.00 0.00 93 1012.6
20260509045545 8 350 0.0 1.6 0.00 0.00 0.00 93 1012.6
20260509045026 8 355 0.0 1.6 0.00 0.00 0.00 93 1012.5
20260509044536 8 5 0.0 1.6 0.00 0.00 0.00 93 1012.5
20260509044032 8 5 0.0 1.6 0.00 0.00 0.00 93 1012.4
20260509043540 8 5 0.0 1.6 0.00 0.00 0.00 93 1012.3
20260509043038 8 5 0.0 1.6 0.00 0.00 0.00 93 1012.3
20260509042542 8 5 0.0 1.6 0.00 0.00 0.00 93 1012.2
20260509042042 8 360 0.0 1.6 0.00 0.00 0.00 93 1012.3
20260509041543 8 341 0.0 3.2 0.00 0.00 0.00 93 1012.3
20260509041029 8 346 0.0 1.6 0.00 0.00 0.00 93 1012.2
20260509040534 8 344 0.0 1.6 0.00 0.00 0.00 93 1012.2
20260509040033 8 344 0.0 1.6 0.00 0.00 0.00 92 1012.3
20260509035537 8 346 0.0 1.6 0.00 0.00 0.00 92 1012.3
20260509035039 8 355 0.0 1.6 0.00 0.00 0.00 92 1012.3
20260509034539 8 350 0.0 1.6 0.00 0.00 0.00 93 1012.3
20260509034037 8 343 0.0 3.2 0.00 0.00 0.00 93 1012.4
20260509033536 8 9 1.6 4.8 0.00 0.00 0.00 93 1012.4
20260509033035 8 355 1.6 4.8 0.00 0.00 0.00 93 1012.4
20260509032542 8 327 0.0 1.6 0.00 0.00 0.00 93 1012.3
20260509032043 8 344 0.0 1.6 0.00 0.00 0.00 92 1012.3
20260509031536 8 350 0.0 3.2 0.00 0.00 0.00 93 1012.3
20260509031034 8 355 1.6 1.6 0.00 0.00 0.00 93 1012.3
20260509030541 8 337 0.0 1.6 0.00 0.00 0.00 92 1012.4
20260509030033 8 337 0.0 1.6 0.00 0.00 0.00 92 1012.4
20260509025606 8 334 0.0 1.6 0.00 0.00 0.00 92 1012.4
20260509025044 8 328 0.0 1.6 0.00 0.00 0.00 92 1012.5
20260509024548 8 333 0.0 1.6 0.00 0.00 0.00 92 1012.5
20260509024026 8 326 0.0 0.0 0.00 0.00 0.00 92 1012.6
20260509023538 8 326 0.0 1.6 0.00 0.00 0.00 92 1012.7
20260509023033 8 326 0.0 1.6 0.00 0.00 0.00 91 1012.7
20260509022540 8 350 0.0 0.0 0.00 0.00 0.00 91 1012.7
20260509022039 9 350 0.0 0.0 0.00 0.00 0.00 91 1012.7
20260509021528 9 350 0.0 0.0 0.00 0.00 0.00 91 1012.7
20260509021028 9 350 0.0 0.0 0.00 0.00 0.00 91 1012.8
20260509020537 9 350 0.0 0.0 0.00 0.00 0.00 91 1012.7
20260509020058 9 350 0.0 0.0 0.00 0.00 0.00 90 1012.7
20260509015542 9 350 0.0 0.0 0.00 0.00 0.00 90 1012.7
20260509015041 9 350 0.0 0.0 0.00 0.00 0.00 90 1012.8
20260509014537 9 350 0.0 0.0 0.00 0.00 0.00 91 1012.7
20260509014036 9 350 0.0 0.0 0.00 0.00 0.00 91 1012.7
20260509013540 9 350 0.0 0.0 0.00 0.00 0.00 91 1012.7
20260509013040 9 350 0.0 0.0 0.00 0.00 0.00 91 1012.7
20260509012542 10 350 0.0 0.0 0.00 0.00 0.00 90 1012.7
20260509012046 10 350 0.0 0.0 0.00 0.00 0.00 90 1012.8
20260509011539 10 350 0.0 0.0 0.00 0.00 0.00 90 1012.8
20260509011040 10 350 0.0 0.0 0.00 0.00 0.00 90 1012.9
20260509010530 10 350 0.0 0.0 0.00 0.00 0.00 89 1013.0
20260509010027 10 350 0.0 0.0 0.00 0.00 0.00 89 1012.9
20260509005534 10 350 0.0 0.0 0.00 0.00 0.00 88 1012.9
20260509005056 10 350 0.0 0.0 0.00 0.00 0.00 88 1013.0
20260509004605 10 350 0.0 0.0 0.00 0.00 0.00 87 1012.9
20260509004040 10 350 0.0 0.0 0.00 0.00 0.00 87 1012.9
20260509003555 10 350 0.0 3.2 0.00 0.00 0.00 87 1013.0
20260509003031 10 360 0.0 3.2 0.00 0.00 0.00 87 1012.9
20260509002553 10 355 1.6 3.2 0.00 0.00 0.00 86 1012.9
20260509002100 10 350 0.0 0.0 0.00 0.00 0.00 86 1013.0
20260509001544 10 355 0.0 0.0 0.00 0.00 0.00 85 1013.0
20260509001045 10 355 0.0 0.0 0.00 0.00 0.00 85 1013.1
20260509000051 10 355 0.0 1.6 0.00 0.00 0.00 84 1013.2
20260508235555 11 355 0.0 1.6 0.00 0.00 0.00 84 1013.2
20260508235033 11 351 0.0 1.6 0.00 0.00 0.00 84 1013.2
20260508234603 11 350 0.0 1.6 0.00 0.00 0.00 84 1013.2
20260508234037 11 350 0.0 1.6 0.00 0.00 0.00 84 1013.2
20260508233526 11 350 0.0 1.6 0.00 0.00 0.00 84 1013.3
20260508233051 11 355 0.0 1.6 0.00 0.00 0.00 84 1013.3
20260508232542 11 335 0.0 1.6 0.00 0.00 0.00 84 1013.4
20260508232039 11 351 0.0 0.0 0.00 0.00 0.00 84 1013.4
20260508231543 11 351 0.0 0.0 0.00 0.00 0.00 84 1013.5
20260508231038 11 351 0.0 0.0 0.00 0.00 0.00 83 1013.5
20260508230541 11 351 0.0 0.0 0.00 0.00 0.00 83 1013.6
20260508230037 11 351 0.0 1.6 0.00 0.00 0.00 83 1013.6
20260508225603 11 351 0.0 1.6 0.00 0.00 0.00 84 1013.6
20260508225028 11 346 0.0 0.0 0.00 0.00 0.00 84 1013.7
20260508224532 11 346 0.0 0.0 0.00 0.00 0.00 83 1013.6
20260508224035 11 346 0.0 0.0 0.00 0.00 0.00 83 1013.7
20260508223540 11 346 0.0 1.6 0.00 0.00 0.00 83 1013.7
20260508223105 11 346 0.0 1.6 0.00 0.00 0.00 82 1013.7
20260508222530 11 350 0.0 1.6 0.00 0.00 0.00 81 1013.6
20260508222032 11 11 0.0 1.6 0.00 0.00 0.00 82 1013.6
20260508221559 11 19 0.0 1.6 0.00 0.00 0.00 81 1013.7
20260508221035 12 10 0.0 1.6 0.00 0.00 0.00 81 1013.6
20260508220539 12 355 0.0 1.6 0.00 0.00 0.00 81 1013.7
20260508220034 12 345 0.0 1.6 0.00 0.00 0.00 81 1013.6
20260508215551 12 355 0.0 1.6 0.00 0.00 0.00 80 1013.5
20260508215031 12 355 0.0 1.6 0.00 0.00 0.00 81 1013.6
20260508214533 12 350 0.0 1.6 0.00 0.00 0.00 81 1013.7
20260508214036 12 348 0.0 1.6 0.00 0.00 0.00 81 1013.7
20260508213551 12 350 0.0 1.6 0.00 0.00 0.00 80 1013.6
20260508213030 12 355 0.0 1.6 0.00 0.00 0.00 79 1013.7
20260508212540 12 355 0.0 1.6 0.00 0.00 0.00 79 1013.7
20260508212104 12 355 0.0 1.6 0.00 0.00 0.00 79 1013.7
20260508211541 12 355 0.0 1.6 0.00 0.00 0.00 79 1013.7
20260508211041 13 27 0.0 1.6 0.00 0.00 0.00 78 1013.7
20260508210527 13 27 0.0 1.6 0.00 0.00 0.00 78 1013.6
20260508210046 13 27 0.0 0.0 0.00 0.00 0.00 78 1013.6
20260508205538 13 27 0.0 0.0 0.00 0.00 0.00 78 1013.5
20260508205036 13 27 0.0 0.0 0.00 0.00 0.00 78 1013.5
20260508204542 13 27 0.0 0.0 0.00 0.00 0.00 76 1013.5
20260508204038 13 37 0.0 0.0 0.00 0.00 0.00 77 1013.5
20260508203543 13 37 0.0 0.0 0.00 0.00 0.00 76 1013.5
20260508203040 13 25 0.0 0.0 0.00 0.00 0.00 75 1013.6
20260508202546 13 25 0.0 0.0 0.00 0.00 0.00 75 1013.5
20260508202050 14 25 0.0 1.6 0.00 0.00 0.00 74 1013.4
20260508201528 14 25 0.0 1.6 0.00 0.00 0.00 73 1013.4
20260508201038 14 34 0.0 1.6 0.00 0.00 0.00 73 1013.2
20260508200545 14 42 0.0 1.6 0.00 0.00 0.00 74 1013.2
20260508200043 15 46 0.0 1.6 0.00 0.00 0.00 72 1013.3
20260508195553 15 39 0.0 1.6 0.00 0.00 0.00 72 1013.2
20260508195035 15 42 1.6 1.6 0.00 0.00 0.00 72 1013.1
20260508194540 15 48 0.0 1.6 0.00 0.00 0.00 71 1013.1
20260508194042 15 47 0.0 3.2 0.00 0.00 0.00 71 1013.0
20260508193550 15 49 1.6 4.8 0.00 0.00 0.00 70 1013.0
20260508193037 15 43 1.6 4.8 0.00 0.00 0.00 70 1013.0
20260508192542 15 55 0.0 1.6 0.00 0.00 0.00 69 1012.9
20260508192043 16 53 0.0 1.6 0.00 0.00 0.00 68 1012.9
20260508191528 16 44 0.0 3.2 0.00 0.00 0.00 68 1012.8
20260508191029 16 36 0.0 3.2 0.00 0.00 0.00 66 1012.7
20260508190537 16 58 1.6 3.2 0.00 0.00 0.00 65 1012.7
20260508190030 16 44 1.6 4.8 0.00 0.00 0.00 64 1012.6
20260508185527 17 44 1.6 4.8 0.00 0.00 0.00 64 1012.6
20260508185036 17 38 1.6 6.4 0.00 0.00 0.00 62 1012.5
20260508184527 17 55 1.6 6.4 0.00 0.00 0.00 61 1012.5
20260508184028 17 42 3.2 6.4 0.00 0.00 0.00 61 1012.4
20260508183530 17 53 3.2 6.4 0.00 0.00 0.00 60 1012.4
20260508183029 17 57 3.2 6.4 0.00 0.00 0.00 59 1012.4
20260508182534 18 48 3.2 8.0 0.00 0.00 0.00 58 1012.4
20260508182041 18 50 3.2 8.0 0.00 0.00 0.00 58 1012.4
20260508181544 18 58 1.6 6.4 0.00 0.00 0.00 58 1012.4
20260508181027 18 46 4.8 8.0 0.00 0.00 0.00 56 1012.4
20260508180548 18 46 3.2 8.0 0.00 0.00 0.00 56 1012.3
20260508180044 18 39 3.2 9.7 0.00 0.00 0.00 56 1012.3
20260508175615 18 36 4.8 9.7 0.00 0.00 0.00 55 1012.2
20260508175050 19 41 3.2 8.0 0.00 0.00 0.00 54 1012.2
20260508174528 19 38 3.2 14.5 0.00 0.00 0.00 53 1012.2
20260508174033 19 54 6.4 14.5 0.00 0.00 0.00 53 1012.1
20260508173537 19 44 3.2 11.3 0.00 0.00 0.00 54 1012.1
20260508173036 19 57 6.4 12.9 0.00 0.00 0.00 53 1012.1
20260508172540 20 40 4.8 12.9 0.00 0.00 0.00 54 1012.1
20260508172105 20 57 4.8 14.5 0.00 0.00 0.00 53 1012.0
20260508171559 20 35 6.4 16.1 0.00 0.00 0.00 52 1012.1
20260508171105 20 43 9.7 16.1 0.00 0.00 0.00 51 1012.0
20260508170537 20 74 6.4 16.1 0.00 0.00 0.00 53 1012.1
20260508170027 20 41 9.7 16.1 0.00 0.00 0.00 50 1012.1
20260508165543 20 49 6.4 14.5 0.00 0.00 0.00 49 1012.1
20260508165026 20 15 6.4 17.7 0.00 0.00 0.00 51 1012.1
20260508164543 20 350 6.4 17.7 0.00 0.00 0.00 51 1012.1
20260508164044 21 40 6.4 16.1 0.00 0.00 0.00 49 1012.0
20260508163550 21 28 8.0 16.1 0.00 0.00 0.00 50 1012.0
20260508163044 21 22 8.0 16.1 0.00 0.00 0.00 49 1012.1
20260508162530 21 45 4.8 17.7 0.00 0.00 0.00 50 1012.1
20260508162033 21 47 6.4 17.7 0.00 0.00 0.00 49 1012.1
20260508161604 21 56 4.8 12.9 0.00 0.00 0.00 50 1012.1
20260508161024 21 51 4.8 14.5 0.00 0.00 0.00 50 1012.1
20260508160540 21 44 8.0 14.5 0.00 0.00 0.00 50 1012.1
20260508160029 21 10 6.4 16.1 0.00 0.00 0.00 49 1012.1
20260508155536 21 51 8.0 16.1 0.00 0.00 0.00 51 1012.2
20260508155036 21 54 6.4 12.9 0.00 0.00 0.00 48 1012.1
20260508154546 21 16 4.8 11.3 0.00 0.00 0.00 48 1012.2
20260508154030 21 42 4.8 14.5 0.00 0.00 0.00 47 1012.1
20260508153536 21 48 8.0 14.5 0.00 0.00 0.00 47 1012.2
20260508153038 21 37 3.2 9.7 0.00 0.00 0.00 47 1012.2
20260508152527 21 55 4.8 16.1 0.00 0.00 0.00 48 1012.2
20260508152028 21 42 6.4 16.1 0.00 0.00 0.00 48 1012.2
20260508151540 21 50 8.0 16.1 0.00 0.00 0.00 48 1012.2
20260508151029 21 69 0.0 19.3 0.00 0.00 0.00 50 1012.2
20260508150542 22 39 8.0 19.3 0.00 0.00 0.00 47 1012.2
20260508150036 22 69 1.6 11.3 0.00 0.00 0.00 48 1012.2
20260508145542 21 37 3.2 11.3 0.00 0.00 0.00 49 1012.2
20260508145042 21 17 1.6 4.8 0.00 0.00 0.00 43 1012.2
20260508144548 21 38 1.6 11.3 0.00 0.00 0.00 43 1012.3
20260508144027 21 34 4.8 11.3 0.00 0.00 0.00 43 1012.3
20260508143533 22 69 4.8 12.9 0.00 0.00 0.00 48 1012.3
20260508143031 21 76 4.8 11.3 0.00 0.00 0.00 48 1012.3
20260508142542 21 18 3.2 11.3 0.00 0.00 0.00 48 1012.3
20260508142043 21 19 3.2 14.5 0.00 0.00 0.00 47 1012.3
20260508141535 21 34 6.4 14.5 0.00 0.00 0.00 49 1012.4
20260508141031 21 21 4.8 16.1 0.00 0.00 0.00 45 1012.4
20260508140536 21 26 3.2 17.7 0.00 0.00 0.00 47 1012.5
20260508140032 21 52 9.7 17.7 0.00 0.00 0.00 47 1012.4
20260508135535 21 21 4.8 14.5 0.00 0.00 0.00 47 1012.4
20260508135037 21 17 6.4 14.5 0.00 0.00 0.00 45 1012.5
20260508134544 21 46 6.4 14.5 0.00 0.00 0.00 46 1012.5
20260508134053 21 57 6.4 16.1 0.00 0.00 0.00 49 1012.5
20260508133535 21 43 9.7 16.1 0.00 0.00 0.00 47 1012.5
20260508133035 21 37 1.6 16.1 0.00 0.00 0.00 46 1012.5
20260508132602 21 75 4.8 14.5 0.00 0.00 0.00 49 1012.6
20260508132043 21 37 4.8 16.1 0.00 0.00 0.00 46 1012.5
20260508131542 21 44 3.2 16.1 0.00 0.00 0.00 45 1012.5
20260508131044 21 99 4.8 14.5 0.00 0.00 0.00 48 1012.6
20260508130541 21 61 4.8 14.5 0.00 0.00 0.00 49 1012.6
20260508130035 21 117 4.8 14.5 0.00 0.00 0.00 50 1012.6
20260508125540 21 84 3.2 16.1 0.00 0.00 0.00 49 1012.6
20260508125043 21 64 3.2 16.1 0.00 0.00 0.00 49 1012.6
20260508124528 21 45 6.4 14.5 0.00 0.00 0.00 49 1012.6
20260508124043 21 59 4.8 17.7 0.00 0.00 0.00 49 1012.6
20260508123546 21 52 3.2 19.3 0.00 0.00 0.00 52 1012.7
20260508123037 20 47 6.4 17.7 0.00 0.00 0.00 51 1012.7
20260508122543 20 45 9.7 17.7 0.00 0.00 0.00 52 1012.7
20260508122042 20 45 3.2 12.9 0.00 0.00 0.00 52 1012.8
20260508121545 20 44 4.8 19.3 0.00 0.00 0.00 52 1012.8
20260508121046 20 78 9.7 19.3 0.00 0.00 0.00 51 1012.9
20260508120530 20 68 3.2 25.7 0.00 0.00 0.00 51 1013.0
20260508120040 20 49 3.2 25.7 0.00 0.00 0.00 52 1013.0
20260508115543 20 9 3.2 17.7 0.00 0.00 0.00 57 1013.0
20260508115038 20 51 9.7 17.7 0.00 0.00 0.00 57 1013.0
20260508114544 20 27 4.8 17.7 0.00 0.00 0.00 56 1013.1
20260508114038 20 39 8.0 17.7 0.00 0.00 0.00 55 1013.1
20260508113039 20 48 3.2 19.3 0.00 0.00 0.00 59 1013.2
20260508112550 20 63 4.8 19.3 0.00 0.00 0.00 57 1013.3
20260508112052 20 25 4.8 11.3 0.00 0.00 0.00 58 1013.3
20260508111551 20 38 1.6 16.1 0.00 0.00 0.00 59 1013.3
20260508111033 20 56 6.4 16.1 0.00 0.00 0.00 59 1013.4
20260508110542 20 63 4.8 12.9 0.00 0.00 0.00 61 1013.5
20260508110033 19 58 3.2 14.5 0.00 0.00 0.00 61 1013.4
20260508105537 19 64 4.8 14.5 0.00 0.00 0.00 59 1013.5
20260508105042 19 68 4.8 11.3 0.00 0.00 0.00 62 1013.5
20260508104541 19 61 4.8 8.0 0.00 0.00 0.00 61 1013.5
20260508104050 18 74 3.2 14.5 0.00 0.00 0.00 63 1013.5
20260508103556 18 60 3.2 14.5 0.00 0.00 0.00 61 1013.6
20260508103036 18 86 6.4 16.1 0.00 0.00 0.00 65 1013.6
20260508102538 18 35 4.8 16.1 0.00 0.00 0.00 62 1013.5
20260508102037 18 57 8.0 14.5 0.00 0.00 0.00 64 1013.5
20260508101605 18 34 4.8 19.3 0.00 0.00 0.00 64 1013.6
20260508101044 17 46 6.4 12.9 0.00 0.00 0.00 67 1013.7
20260508100532 17 44 4.8 11.3 0.00 0.00 0.00 67 1013.7
20260508100029 17 60 4.8 17.7 0.00 0.00 0.00 66 1013.7
20260508095559 17 57 6.4 14.5 0.00 0.00 0.00 69 1013.7
20260508095041 17 95 6.4 16.1 0.00 0.00 0.00 66 1013.8
20260508094528 17 36 4.8 16.1 0.00 0.00 0.00 66 1013.8
20260508094027 17 45 4.8 14.5 0.00 0.00 0.00 69 1013.8
20260508093544 17 89 4.8 12.9 0.00 0.00 0.00 69 1013.8
20260508093037 17 74 6.4 14.5 0.00 0.00 0.00 68 1013.8
20260508092543 17 32 4.8 14.5 0.00 0.00 0.00 70 1013.8
20260508092039 17 70 4.8 12.9 0.00 0.00 0.00 72 1013.7
20260508091530 17 31 6.4 12.9 0.00 0.00 0.00 71 1013.7
20260508091027 16 82 4.8 12.9 0.00 0.00 0.00 73 1013.7
20260508090602 16 33 6.4 12.9 0.00 0.00 0.00 75 1013.7
20260508090031 16 42 3.2 11.3 0.00 0.00 0.00 76 1013.7
20260508085537 16 76 6.4 14.5 0.00 0.00 0.00 76 1013.8
20260508085039 16 40 8.0 14.5 0.00 0.00 0.00 76 1013.7
20260508084542 16 53 4.8 14.5 0.00 0.00 0.00 78 1013.8
20260508084042 16 55 4.8 12.9 0.00 0.00 0.00 78 1013.9
20260508083545 15 74 3.2 8.0 0.00 0.00 0.00 80 1013.9
20260508083031 16 29 4.8 9.7 0.00 0.00 0.00 79 1013.9
20260508082527 15 58 4.8 9.7 0.00 0.00 0.00 81 1013.9
20260508082031 15 82 1.6 8.0 0.00 0.00 0.00 82 1013.9
20260508081601 15 98 3.2 8.0 0.00 0.00 0.00 82 1013.8
20260508081045 15 59 3.2 9.7 0.00 0.00 0.00 82 1013.7
20260508080531 14 67 1.6 8.0 0.00 0.00 0.00 84 1013.7
20260508080044 14 38 3.2 8.0 0.00 0.00 0.00 83 1013.8
20260508075542 14 76 1.6 6.4 0.00 0.00 0.00 84 1013.8
20260508075043 14 42 3.2 6.4 0.00 0.00 0.00 83 1013.8
20260508074535 13 226 0.0 4.8 0.00 0.00 0.00 84 1013.9
20260508074034 14 75 1.6 4.8 0.00 0.00 0.00 82 1013.9
20260508073543 14 102 0.0 8.0 0.00 0.00 0.00 84 1013.9
20260508073027 14 105 4.8 8.0 0.00 0.00 0.00 83 1013.9
20260508072531 13 147 1.6 6.4 0.00 0.00 0.00 85 1013.9
20260508072037 13 63 3.2 6.4 0.00 0.00 0.00 85 1013.9
20260508071544 13 93 4.8 6.4 0.00 0.00 0.00 86 1013.9
20260508071103 13 99 4.8 6.4 0.00 0.00 0.00 87 1013.9
20260508070541 12 115 3.2 6.4 0.00 0.00 0.00 90 1013.9
20260508070037 12 131 3.2 6.4 0.00 0.00 0.00 92 1013.9
20260508065551 11 142 3.2 6.4 0.00 0.00 0.00 94 1014.0
20260508065030 10 55 0.0 3.2 0.00 0.00 0.00 94 1014.0
20260508064535 10 39 0.0 1.6 0.00 0.00 0.00 93 1013.9
20260508064034 10 32 0.0 3.2 0.00 0.00 0.00 94 1013.9
20260508063541 10 74 0.0 3.2 0.00 0.00 0.00 94 1013.9